Regional Weather Roundup
Issued by NWS

Home | Current Version | Previous Version | Text Only | Print | Product List | Glossary Off
Versions: 1 2 3 4 5 6 7 8 9 10 11 12 13 14 15 16 17 18 19 20 21 22 23 24 25 26 27 28 29 30 31 32 33 34 35 36 37 38 39 40 41 42 43 44 45 46 47 48 49 50

000
ASUS43 KDMX 031904
RWRIA

WEATHER ROUNDUP FOR IOWA
NATIONAL WEATHER SERVICE DES MOINES IA
  ISSUED BY NWS QUAD CITIES IA IL
100 PM CST TUE MAR 03 2015

NOTE: "FAIR" INDICATES FEW OR NO CLOUDS BELOW 12,000 FEET WITH NO
SIGNIFICANT WEATHER AND/OR OBSTRUCTIONS TO VISIBILITY.

* - THESE STATIONS ARE NOT NWS STATIONS...THUS NOT UNDER NWS
QUALITY CONTROL.  THEY ALSO DO NOT REPORT WEATHER SUCH
AS PRECIPITATION OR FOG.

IAZ001>003-012>014-020>022-031>034-043>046-032000-
   NORTHWEST IOWA

CITY           SKY/WX    TMP DP  RH WIND       PRES   REMARKS
SIOUX CITY     FLURRIES  30  18  60 N28G38    29.87R WCI  15
SPENCER        PTSUNNY   27  18  69 NW28G36   29.81R WCI  11
$$

IAZ055>058-069>071-079>083-090>094-032000-
   SOUTHWEST IOWA

CITY           SKY/WX    TMP DP  RH WIND       PRES   REMARKS
$$

IAZ047>049-059>061-072>074-084-032000-
   CENTRAL IOWA

CITY           SKY/WX    TMP DP  RH WIND       PRES   REMARKS
AMES           CLOUDY    33  26  75 NW22      29.76R WCI  21
GRINNELL *     CLOUDY    33  30  90 W20G25    29.72R WCI  21
MARSHALLTOWN   CLOUDY    32  28  85 NW21      29.72R WCI  20
$$

IAZ004>006-015-016-023>025-035-036-032000-
   NORTH CENTRAL IOWA

CITY           SKY/WX    TMP DP  RH WIND       PRES   REMARKS
ESTHERVILLE    CLOUDY    25  19  78 NW28      29.77R WCI   9
MASON CITY     CLOUDY    31  25  78 NW25      29.71R WCI  17
$$

IAZ007>011-017>019-026>030-037>042-050>054-066-032000-
   NORTHEAST IOWA

CITY           SKY/WX    TMP DP  RH WIND       PRES   REMARKS
CEDAR RAPIDS   CLOUDY    33  31  92 W17       29.68R WCI  22
DUBUQUE        CLOUDY    32  30  92 W18       29.65R FOG     WCI  20
WATERLOO       CLOUDY    32  28  86 NW13G24   29.69S WCI  22
$$

IAZ064-065-067-068-078-032000-
   EAST CENTRAL IOWA

CITY           SKY/WX    TMP DP  RH WIND       PRES   REMARKS
DAVENPORT      CLOUDY    33  30  88 W18       29.68F FOG     WCI  22
IOWA CITY      CLOUDY    34  31  88 W14       29.72R WCI  25
QUAD CITIES    CLOUDY    33  31  92 W15       29.68F FOG     WCI  23
$$

IAZ062-063-075>077-085>089-095>099-032000-
   SOUTHEAST IOWA

CITY           SKY/WX    TMP DP  RH WIND       PRES   REMARKS
OTTUMWA        CLOUDY    36  34  93 NW20G25   29.73R WCI  25
$$

ABBREVIATIONS USED IN REMARKS
   TC - TEMPERATURES IN CELSIUS
  WCI - WIND CHILL INDEX
   HX - HEAT INDEX
  VSB - VISIBILITY
$$


USA.gov is the U.S. government's official web portal to all federal, state and local government web resources and services.